User: anonymous   Login
Location: Edmonton
(53.5500°N, 113.5000°W)
Time: 21:31:51
(UTC-07:00)
Language:

CZ-4C R/B - Orbit

View from above orbital plane
View from above orbital plane
View from above satellite
View from above satellite

Ground track
Ground track

The orbit data is extracted from the following two-line orbital elements,

1 36416U 10009D   17055.53820529 -.00000099  00000-0 -18657-5 0  9994
2 36416  63.4390 206.1714 0376104 356.6055   3.2440 13.69511987348940
Epoch (UTC): 24 February 2017 12:55:00
Eccentricity: 0.0376104
inclination: 63.4390°
perigee height: 724 km
apogee height: 1279 km
right ascension of ascending node: 206.1714°
argument of perigee: 356.6055°
revolutions per day: 13.69511987
mean anomaly at epoch: 3.2440°
orbit number at epoch: 34894

The dashed part of the orbit path shows where the satellite is in the earth's shadow,  

DLR